07-04-2022, 00:00:05,    187,    2.5,    6.5,   0.00,   0.00,  986.7,   80.3, -999.0
07-04-2022, 00:00:15,    240,    1.4,    6.6,   0.00,   0.00,  986.8,   80.3, -999.0
07-04-2022, 00:00:25,    204,    6.5,    6.6,   0.00,   0.00,  986.7,   80.4, -999.0
07-04-2022, 00:00:35,    229,    4.4,    6.6,   0.00,   0.00,  986.8,   80.5, -999.0
07-04-2022, 00:00:45,    224,    1.9,    6.6,   0.00,   0.00,  986.8,   80.6, -999.0
07-04-2022, 00:00:55,    212,    2.2,    6.7,   0.00,   0.00,  986.8,   80.6, -999.0
07-04-2022, 00:01:05,    246,    7.0,    6.6,   0.00,   0.00,  986.8,   80.7, -999.0
07-04-2022, 00:01:15,    227,    5.5,    6.6,   0.00,   0.00,  986.8,   80.7, -999.0
07-04-2022, 00:01:25,    244,    5.4,    6.6,   0.00,   0.00,  986.8,   80.7, -999.0
07-04-2022, 00:01:35,    243,    4.0,    6.6,   0.00,   0.00,  986.8,   80.8, -999.0
07-04-2022, 00:01:45,    187,    3.8,    6.6,   0.00,   0.00,  986.8,   80.8, -999.0
07-04-2022, 00:01:54,    158,    2.4,    6.6,   0.00,   0.00,  986.8,   80.9, -999.0
07-04-2022, 00:02:05,    257,    2.4,    6.6,   0.00,   0.00,  986.8,   81.0, -999.0
07-04-2022, 00:02:14,    206,    1.5,    6.6,   0.00,   0.00,  986.9,   81.0, -999.0
07-04-2022, 00:02:24,    221,    0.6,    6.6,   0.00,   0.00,  986.8,   81.0, -999.0
07-04-2022, 00:02:34,    198,    5.0,    6.6,   0.00,   0.00,  986.9,   81.3, -999.0
07-04-2022, 00:02:44,    222,    7.6,    6.6,   0.00,   0.00,  986.9,   81.2, -999.0
07-04-2022, 00:02:54,    225,    7.9,    6.6,   0.00,   0.00,  986.8,   81.5, -999.0
07-04-2022, 00:03:04,    259,    5.9,    6.6,   0.00,   0.00,  986.8,   81.3, -999.0
07-04-2022, 00:03:14,    219,    3.6,    6.5,   0.00,   0.00,  986.8,   81.5, -999.0
07-04-2022, 00:03:24,    217,    4.4,    6.6,   0.00,   0.00,  986.8,   81.6, -999.0
07-04-2022, 00:03:34,    231,    6.7,    6.6,   0.00,   0.00,  986.9,   81.6, -999.0
07-04-2022, 00:03:44,    210,    6.8,    6.6,   0.00,   0.00,  986.8,   81.7, -999.0
07-04-2022, 00:03:54,    288,    2.7,    6.5,   0.00,   0.00,  986.8,   81.7, -999.0
07-04-2022, 00:04:04,    204,    2.1,    6.6,   0.00,   0.00,  986.8,   81.7, -999.0
07-04-2022, 00:04:14,    229,    1.6,    6.7,   0.00,   0.00,  986.8,   81.7, -999.0
07-04-2022, 00:04:24,    255,    4.7,    6.6,   0.00,   0.00,  986.8,   81.8, -999.0
07-04-2022, 00:04:34,    193,    2.6,    6.6,   0.00,   0.00,  986.8,   81.8, -999.0
07-04-2022, 00:04:44,    227,    0.7,    6.6,   0.00,   0.00,  986.8,   81.7, -999.0
07-04-2022, 00:04:54,    254,    2.3,    6.5,   0.00,   0.00,  986.8,   81.8, -999.0
07-04-2022, 00:05:03,    244,    3.9,    6.6,   0.00,   0.00,  986.8,   81.8, -999.0
07-04-2022, 00:05:14,    210,    2.9,    6.6,   0.00,   0.00,  986.9,   81.9, -999.0
07-04-2022, 00:05:24,    268,    3.0,    6.6,   0.00,   0.00,  986.8,   82.0, -999.0
07-04-2022, 00:05:33,    225,    5.2,    6.5,   0.00,   0.00,  986.8,   82.1, -999.0
07-04-2022, 00:05:43,    239,    4.8,    6.5,   0.00,   0.00,  986.8,   82.2, -999.0
07-04-2022, 00:05:53,    271,    1.9,    6.5,   0.00,   0.00,  986.8,   82.2, -999.0
07-04-2022, 00:06:03,    232,    0.9,    6.5,   0.00,   0.00,  986.8,   82.4, -999.0
07-04-2022, 00:06:13,    212,    1.1,    6.4,   0.00,   0.00,  986.8,   82.3, -999.0
07-04-2022, 00:06:23,    249,    2.2,    6.5,   0.00,   0.00,  986.8,   82.4, -999.0
07-04-2022, 00:06:33,    203,    1.5,    6.5,   0.00,   0.00,  986.8,   82.6, -999.0
07-04-2022, 00:06:43,    239,    1.1,    6.5,   0.00,   0.00,  986.8,   82.6, -999.0
07-04-2022, 00:06:53,    218,    1.5,    6.5,   0.00,   0.00,  986.7,   82.6, -999.0
07-04-2022, 00:07:03,    221,    1.3,    6.5,   0.00,   0.00,  986.7,   82.7, -999.0
07-04-2022, 00:07:13,    214,    1.1,    6.5,   0.00,   0.00,  986.8,   82.7, -999.0
07-04-2022, 00:07:23,    216,    1.4,    6.5,   0.00,   0.00,  986.8,   82.8, -999.0
07-04-2022, 00:07:33,    269,    1.5,    6.5,   0.00,   0.00,  986.7,   82.8, -999.0
07-04-2022, 00:07:43,    167,    3.2,    6.5,   0.00,   0.00,  986.7,   82.8, -999.0
07-04-2022, 00:07:53,    224,    7.4,    6.4,   0.00,   0.00,  986.8,   83.0, -999.0
07-04-2022, 00:08:03,    207,    3.7,    6.4,   0.00,   0.00,  986.7,   83.0, -999.0
07-04-2022, 00:08:13,    242,    3.9,    6.4,   0.00,   0.00,  986.7,   83.3, -999.0
07-04-2022, 00:08:23,    200,    3.2,    6.4,   0.00,   0.00,  986.7,   83.2, -999.0
07-04-2022, 00:08:33,    175,    3.6,    6.4,   0.00,   0.00,  986.8,   83.3, -999.0
07-04-2022, 00:08:42,    212,    3.8,    6.5,   0.00,   0.00,  986.7,   83.4, -999.0
07-04-2022, 00:08:53,    256,    4.8,    6.4,   0.00,   0.00,  986.8,   83.6, -999.0
07-04-2022, 00:09:02,    230,    4.4,    6.4,   0.00,   0.00,  986.7,   83.6, -999.0
07-04-2022, 00:09:12,    219,    4.1,    6.4,   0.00,   0.00,  986.7,   83.7, -999.0
07-04-2022, 00:09:22,    215,    2.7,    6.4,   0.00,   0.00,  986.7,   83.7, -999.0
07-04-2022, 00:09:32,    262,    2.1,    6.3,   0.00,   0.00,  986.7,   83.8, -999.0
07-04-2022, 00:09:42,    245,    0.7,    6.2,   0.00,   0.00,  986.7,   83.6, -999.0
07-04-2022, 00:09:52,    234,    5.0,    6.3,   0.00,   0.00,  986.7,   83.8, -999.0
07-04-2022, 00:10:02,    216,    2.1,    6.3,   0.00,   0.00,  986.7,   84.0, -999.0
07-04-2022, 00:10:12,    221,    2.9,    6.3,   0.00,   0.00,  986.7,   84.1, -999.0
07-04-2022, 00:10:22,    242,    9.2,    6.3,   0.00,   0.00,  986.7,   84.1, -999.0
07-04-2022, 00:10:32,    229,    5.4,    6.3,   0.00,   0.00,  986.8,   84.2, -999.0
07-04-2022, 00:10:42,    243,    6.0,    6.2,   0.00,   0.00,  986.7,   84.3, -999.0
07-04-2022, 00:10:52,    204,    5.1,    6.2,   0.00,   0.00,  986.7,   84.4, -999.0
07-04-2022, 00:11:02,    212,    1.6,    6.3,   0.00,   0.00,  986.7,   84.5, -999.0
07-04-2022, 00:11:12,    206,    1.4,    6.3,   0.00,   0.00,  986.6,   84.5, -999.0
07-04-2022, 00:11:22,    211,    1.2,    6.3,   0.00,   0.00,  986.6,   84.6, -999.0
07-04-2022, 00:11:32,    210,    4.4,    6.2,   0.00,   0.00,  986.7,   84.7, -999.0
07-04-2022, 00:11:42,    274,    2.6,    6.3,   0.00,   0.00,  986.7,   84.7, -999.0
07-04-2022, 00:11:52,    240,    2.4,    6.3,   0.00,   0.00,  986.7,   84.8, -999.0
07-04-2022, 00:12:02,    243,    5.3,    6.2,   0.00,   0.00,  986.7,   85.0, -999.0
07-04-2022, 00:12:11,    204,    3.3,    6.2,   0.00,   0.00,  986.5,   85.1, -999.0
07-04-2022, 00:12:21,    256,    1.8,    6.1,   0.00,   0.00,  986.6,   85.0, -999.0
07-04-2022, 00:12:32,    205,    3.8,    6.3,   0.00,   0.00,  986.6,   85.2, -999.0
07-04-2022, 00:12:41,    211,    3.4,    6.3,   0.00,   0.00,  986.6,   85.3, -999.0
07-04-2022, 00:12:51,    209,    3.9,    6.2,   0.00,   0.00,  986.6,   85.3, -999.0
07-04-2022, 00:13:01,    211,    5.7,    6.2,   0.00,   0.00,  986.6,   85.5, -999.0
07-04-2022, 00:13:11,    206,    1.5,    6.2,   0.00,   0.00,  986.6,   85.5, -999.0
07-04-2022, 00:13:21,    210,    1.3,    6.2,   0.00,   0.00,  986.5,   85.4, -999.0
07-04-2022, 00:13:31,    209,    0.1,    6.1,   0.00,   0.00,  986.4,   85.3, -999.0
07-04-2022, 00:13:41,    254,    0.0,    6.1,   0.00,   0.00,  986.4,   85.2, -999.0
07-04-2022, 00:13:51,    208,    4.2,    6.2,   0.00,   0.00,  986.6,   85.6, -999.0
07-04-2022, 00:14:01,    221,    4.3,    6.1,   0.00,   0.00,  986.6,   85.7, -999.0
07-04-2022, 00:14:11,    216,    5.0,    6.2,   0.00,   0.00,  986.6,   85.7, -999.0
07-04-2022, 00:14:21,    248,    3.5,    6.2,   0.00,   0.00,  986.6,   85.7, -999.0
07-04-2022, 00:14:31,    212,    2.2,    6.3,   0.00,   0.00,  986.7,   85.8, -999.0
07-04-2022, 00:14:41,    225,    2.9,    6.2,   0.00,   0.00,  986.7,   85.8, -999.0
07-04-2022, 00:14:51,    242,    0.8,    6.1,   0.00,   0.00,  986.6,   85.6, -999.0
07-04-2022, 00:15:01,    249,    2.3,    6.2,   0.00,   0.00,  986.7,   85.9, -999.0
07-04-2022, 00:15:11,    241,    2.9,    6.2,   0.00,   0.00,  986.7,   85.8, -999.0
07-04-2022, 00:15:21,    237,    5.5,    6.2,   0.00,   0.00,  986.7,   86.0, -999.0
07-04-2022, 00:15:30,    224,    6.3,    6.1,   0.00,   0.00,  986.8,   86.1, -999.0
07-04-2022, 00:15:41,    219,    6.6,    6.2,   0.00,   0.00,  986.7,   86.1, -999.0
07-04-2022, 00:15:50,    249,    2.9,    6.2,   0.00,   0.00,  986.7,   86.1, -999.0
07-04-2022, 00:16:00,    226,    5.0,    6.2,   0.00,   0.00,  986.7,   86.1, -999.0
07-04-2022, 00:16:11,    284,    1.6,    6.1,   0.00,   0.00,  986.7,   86.1, -999.0
07-04-2022, 00:16:20,    277,    5.6,    6.2,   0.00,   0.00,  986.6,   86.3, -999.0
07-04-2022, 00:16:30,    170,    3.5,    6.2,   0.00,   0.00,  986.6,   86.3, -999.0
07-04-2022, 00:16:40,    208,    4.3,    6.2,   0.00,   0.00,  986.7,   86.3, -999.0
07-04-2022, 00:16:50,    243,    1.3,    6.2,   0.00,   0.00,  986.6,   86.4, -999.0
07-04-2022, 00:17:00,    225,    2.7,    6.2,   0.00,   0.00,  986.5,   86.5, -999.0
07-04-2022, 00:17:10,    223,    6.0,    6.2,   0.00,   0.00,  986.4,   86.4, -999.0
07-04-2022, 00:17:20,    190,    2.6,    6.2,   0.00,   0.00,  986.6,   86.4, -999.0
07-04-2022, 00:17:30,    213,    2.0,    6.2,   0.00,   0.00,  986.6,   86.4, -999.0
07-04-2022, 00:17:40,    250,    3.1,    6.2,   0.00,   0.00,  986.5,   86.3, -999.0
07-04-2022, 00:17:50,    246,    3.2,    6.2,   0.00,   0.00,  986.6,   86.5, -999.0
07-04-2022, 00:18:00,    235,    2.6,    6.2,   0.00,   0.00,  986.6,   86.4, -999.0
07-04-2022, 00:18:10,    242,    1.4,    6.2,   0.00,   0.00,  986.5,   86.4, -999.0
07-04-2022, 00:18:20,    260,    0.4,    6.2,   0.00,   0.00,  986.7,   86.4, -999.0
07-04-2022, 00:18:30,    250,    1.3,    6.3,   0.00,   0.00,  986.6,   86.5, -999.0
07-04-2022, 00:18:40,    234,    0.8,    6.1,   0.00,   0.00,  986.6,   86.3, -999.0
07-04-2022, 00:18:50,    211,    2.0,    6.1,   0.00,   0.00,  986.5,   86.5, -999.0
07-04-2022, 00:19:00,    222,    4.1,    6.1,   0.00,   0.00,  986.6,   86.4, -999.0
07-04-2022, 00:19:09,    258,    7.6,    6.2,   0.00,   0.00,  986.5,   86.4, -999.0
07-04-2022, 00:19:20,    221,    2.8,    6.1,   0.00,   0.00,  986.5,   86.4, -999.0
07-04-2022, 00:19:29,    257,    4.9,    6.1,   0.00,   0.00,  986.5,   86.3, -999.0
07-04-2022, 00:19:39,    222,    5.7,    6.2,   0.00,   0.00,  986.5,   86.3, -999.0
07-04-2022, 00:19:49,    281,    4.1,    6.1,   0.00,   0.00,  986.5,   86.3, -999.0
07-04-2022, 00:19:59,    237,    4.9,    6.2,   0.00,   0.00,  986.5,   86.2, -999.0
07-04-2022, 00:20:09,    235,    2.4,    6.2,   0.00,   0.00,  986.5,   86.3, -999.0
07-04-2022, 00:20:19,    231,    1.1,    6.2,   0.00,   0.00,  986.5,   86.2, -999.0
07-04-2022, 00:20:29,    204,    1.0,    6.2,   0.00,   0.00,  986.6,   86.2, -999.0
07-04-2022, 00:20:39,    232,    5.4,    6.2,   0.00,   0.00,  986.6,   86.3, -999.0
07-04-2022, 00:20:49,    220,    4.9,    6.1,   0.00,   0.00,  986.6,   86.2, -999.0
07-04-2022, 00:20:59,    239,    4.9,    6.2,   0.00,   0.00,  986.6,   86.2, -999.0
07-04-2022, 00:21:09,    191,    5.7,    6.1,   0.00,   0.00,  986.6,   86.2, -999.0
07-04-2022, 00:21:19,    253,    1.3,    6.2,   0.00,   0.00,  986.7,   86.1, -999.0
07-04-2022, 00:21:29,    239,    1.8,    6.2,   0.00,   0.00,  986.7,   86.2, -999.0
07-04-2022, 00:21:39,    216,    1.0,    6.1,   0.00,   0.00,  986.5,   86.0, -999.0
07-04-2022, 00:21:49,    275,    1.7,    6.1,   0.00,   0.00,  986.6,   86.2, -999.0
07-04-2022, 00:21:59,    251,    3.7,    6.0,   0.00,   0.00,  986.7,   86.2, -999.0
07-04-2022, 00:22:09,    253,    4.2,    6.1,   0.00,   0.00,  986.7,   86.1, -999.0
07-04-2022, 00:22:18,    186,    1.5,    6.1,   0.00,   0.00,  986.7,   86.0, -999.0
07-04-2022, 00:22:29,    250,    3.0,    6.1,   0.00,   0.00,  986.6,   86.1, -999.0
07-04-2022, 00:22:38,    263,    4.8,    6.0,   0.00,   0.00,  986.6,   86.0, -999.0
07-04-2022, 00:22:48,    206,    3.0,    6.1,   0.00,   0.00,  986.5,   86.0, -999.0
07-04-2022, 00:22:59,    272,    1.8,    6.1,   0.00,   0.00,  986.6,   86.2, -999.0
07-04-2022, 00:23:08,    173,    2.1,    6.2,   0.00,   0.00,  986.7,   86.2, -999.0
07-04-2022, 00:23:18,    233,    9.0,    6.2,   0.00,   0.00,  986.7,   86.1, -999.0
07-04-2022, 00:23:28,    225,    5.9,    6.2,   0.00,   0.00,  986.6,   86.0, -999.0
07-04-2022, 00:23:38,    199,    3.3,    6.2,   0.00,   0.00,  986.6,   85.9, -999.0
07-04-2022, 00:23:48,    226,    3.2,    6.2,   0.00,   0.00,  986.6,   85.9, -999.0
07-04-2022, 00:23:58,    219,    5.5,    6.2,   0.00,   0.00,  986.7,   85.7, -999.0
07-04-2022, 00:24:08,    239,    3.1,    6.2,   0.00,   0.00,  986.7,   85.9, -999.0
07-04-2022, 00:24:18,    245,    1.5,    6.2,   0.00,   0.00,  986.7,   85.8, -999.0
07-04-2022, 00:24:28,    245,    0.1,    6.2,   0.00,   0.00,  986.5,   85.6, -999.0
07-04-2022, 00:24:38,    232,    2.0,    6.1,   0.00,   0.00,  986.7,   85.6, -999.0
07-04-2022, 00:24:48,    229,    4.0,    6.2,   0.00,   0.00,  986.7,   85.7, -999.0
07-04-2022, 00:24:58,    235,    6.0,    6.2,   0.00,   0.00,  986.6,   85.7, -999.0
07-04-2022, 00:25:08,    237,    4.3,    6.2,   0.00,   0.00,  986.6,   85.7, -999.0
07-04-2022, 00:25:18,    253,    1.9,    6.2,   0.00,   0.00,  986.8,   85.7, -999.0
07-04-2022, 00:25:28,    246,    3.4,    6.2,   0.00,   0.00,  986.7,   85.7, -999.0
07-04-2022, 00:25:38,    235,    3.6,    6.2,   0.00,   0.00,  986.7,   85.7, -999.0
07-04-2022, 00:25:48,    248,    4.5,    6.2,   0.00,   0.00,  986.7,   85.8, -999.0
07-04-2022, 00:25:57,    267,    6.5,    6.2,   0.00,   0.00,  986.6,   85.7, -999.0
07-04-2022, 00:26:08,    235,    3.0,    6.2,   0.00,   0.00,  986.7,   85.6, -999.0
07-04-2022, 00:26:17,    205,    6.6,    6.2,   0.00,   0.00,  986.7,   85.6, -999.0
07-04-2022, 00:26:27,    272,    5.8,    6.3,   0.00,   0.00,  986.7,   85.5, -999.0
07-04-2022, 00:26:37,    258,    8.8,    6.3,   0.00,   0.00,  986.8,   85.6, -999.0
07-04-2022, 00:26:47,    254,   10.7,    6.2,   0.00,   0.00,  986.7,   85.5, -999.0
07-04-2022, 00:26:57,    267,    9.0,    6.3,   0.00,   0.00,  986.8,   85.3, -999.0
07-04-2022, 00:27:07,    235,    6.5,    6.2,   0.00,   0.00,  986.7,   85.2, -999.0
07-04-2022, 00:27:17,    225,    6.0,    6.3,   0.00,   0.00,  986.7,   85.3, -999.0
07-04-2022, 00:27:27,    248,    2.5,    6.4,   0.00,   0.00,  986.7,   85.2, -999.0
07-04-2022, 00:27:37,    294,    1.2,    6.3,   0.00,   0.00,  986.7,   85.3, -999.0
07-04-2022, 00:27:47,    213,    3.8,    6.2,   0.00,   0.00,  986.8,   85.3, -999.0
07-04-2022, 00:27:57,    256,    6.5,    6.3,   0.00,   0.00,  986.8,   85.2, -999.0
07-04-2022, 00:28:07,    227,    4.2,    6.2,   0.00,   0.00,  986.7,   85.2, -999.0
07-04-2022, 00:28:17,    191,    3.2,    6.2,   0.00,   0.00,  986.7,   85.2, -999.0
07-04-2022, 00:28:27,    230,    4.2,    6.2,   0.00,   0.00,  986.8,   85.3, -999.0
07-04-2022, 00:28:37,    269,    5.1,    6.3,   0.00,   0.00,  986.8,   85.3, -999.0
07-04-2022, 00:28:47,    248,    6.7,    6.1,   0.00,   0.00,  986.9,   85.3, -999.0
07-04-2022, 00:28:57,    179,    5.6,    6.2,   0.00,   0.00,  986.7,   85.3, -999.0
07-04-2022, 00:29:07,    246,    5.4,    6.1,   0.00,   0.00,  986.8,   85.2, -999.0
07-04-2022, 00:29:17,    242,    9.5,    6.2,   0.00,   0.00,  986.8,   85.3, -999.0
07-04-2022, 00:29:27,    246,    7.6,    6.1,   0.00,   0.02,  986.7,   85.2, -999.0
07-04-2022, 00:29:36,    231,    4.8,    6.2,   0.00,   0.00,  986.8,   85.3, -999.0
07-04-2022, 00:29:47,    242,    4.5,    6.2,   0.00,   0.00,  986.8,   85.4, -999.0
07-04-2022, 00:29:56,    231,    6.1,    6.2,   0.00,   0.00,  986.8,   85.3, -999.0
07-04-2022, 00:30:06,    210,    5.6,    6.1,   0.00,   0.00,  986.7,   85.3, -999.0
07-04-2022, 00:30:16,    241,    3.6,    6.2,   0.00,   0.00,  986.7,   85.2, -999.0
07-04-2022, 00:30:26,    231,    6.8,    6.2,   0.00,   0.00,  986.7,   85.3, -999.0
07-04-2022, 00:30:36,    253,    6.6,    6.2,   0.00,   0.00,  986.7,   85.3, -999.0
07-04-2022, 00:30:46,    241,    4.4,    6.1,   0.00,   0.00,  986.8,   85.2, -999.0
07-04-2022, 00:30:56,    256,    5.8,    6.2,   0.00,   0.00,  986.8,   85.3, -999.0
07-04-2022, 00:31:06,    225,    2.2,    6.1,   0.00,   0.00,  986.8,   85.3, -999.0
07-04-2022, 00:31:16,    252,    7.8,    6.1,   0.00,   0.00,  986.8,   85.3, -999.0
07-04-2022, 00:31:26,    220,    5.6,    6.1,   0.00,   0.00,  986.8,   85.3, -999.0
07-04-2022, 00:31:36,    228,    3.9,    6.1,   0.00,   0.00,  986.8,   85.4, -999.0
07-04-2022, 00:31:46,    251,    5.6,    6.1,   0.00,   0.00,  986.8,   85.4, -999.0
07-04-2022, 00:31:56,    215,    5.5,    6.0,   0.00,   0.00,  986.8,   85.4, -999.0
07-04-2022, 00:32:06,    207,    7.8,    6.1,   0.00,   0.00,  986.8,   85.5, -999.0
07-04-2022, 00:32:16,    244,    5.9,    6.0,   0.00,   0.00,  986.7,   85.4, -999.0
07-04-2022, 00:32:26,    269,    5.1,    6.1,   0.00,   0.00,  986.8,   85.4, -999.0
07-04-2022, 00:32:36,    298,    4.6,    6.1,   0.00,   0.00,  986.8,   85.4, -999.0
07-04-2022, 00:32:45,    227,    3.7,    6.1,   0.00,   0.00,  986.8,   85.4, -999.0
07-04-2022, 00:32:56,    247,    6.3,    6.1,   0.00,   0.00,  986.8,   85.5, -999.0
07-04-2022, 00:33:06,    244,    5.6,    6.0,   0.00,   0.00,  986.8,   85.6, -999.0
07-04-2022, 00:33:15,    274,    3.9,    6.1,   0.00,   0.00,  986.8,   85.5, -999.0
07-04-2022, 00:33:25,    236,    3.4,    6.0,   0.00,   0.00,  986.8,   85.5, -999.0
07-04-2022, 00:33:35,    235,    0.6,    6.0,   0.00,   0.00,  986.7,   85.6, -999.0
07-04-2022, 00:33:45,    203,    2.3,    6.0,   0.00,   0.00,  986.7,   85.8, -999.0
07-04-2022, 00:33:55,    230,    2.5,    6.0,   0.00,   0.00,  986.8,   85.8, -999.0
07-04-2022, 00:34:05,    253,    1.4,    6.0,   0.00,   0.00,  986.8,   85.8, -999.0
07-04-2022, 00:34:15,    234,    3.7,    6.1,   0.00,   0.00,  986.8,   85.9, -999.0
07-04-2022, 00:34:25,    242,    8.2,    6.0,   0.00,   0.00,  986.8,   86.0, -999.0
07-04-2022, 00:34:35,    247,    3.7,    6.0,   0.00,   0.00,  986.8,   86.1, -999.0
07-04-2022, 00:34:45,    213,    5.2,    6.0,   0.00,   0.00,  986.8,   86.2, -999.0
07-04-2022, 00:34:55,    296,    1.3,    6.0,   0.00,   0.00,  986.8,   86.2, -999.0
07-04-2022, 00:35:05,    281,    3.0,    6.0,   0.00,   0.00,  986.8,   86.2, -999.0
07-04-2022, 00:35:15,    221,    8.4,    6.0,   0.00,   0.00,  986.8,   86.4, -999.0
07-04-2022, 00:35:25,    311,    4.4,    5.9,   0.00,   0.00,  986.8,   86.5, -999.0
07-04-2022, 00:35:35,    250,    2.3,    5.8,   0.00,   0.00,  986.8,   86.6, -999.0
07-04-2022, 00:35:45,    224,    5.6,    5.9,   0.00,   0.00,  986.8,   86.6, -999.0
07-04-2022, 00:35:54,    253,    4.7,    5.9,   0.00,   0.00,  986.8,   86.7, -999.0
07-04-2022, 00:36:05,    277,    3.1,    5.9,   0.00,   0.00,  986.8,   86.6, -999.0
07-04-2022, 00:36:15,    223,    4.5,    5.9,   0.00,   0.00,  986.8,   86.7, -999.0
07-04-2022, 00:36:24,    226,    4.5,    5.8,   0.00,   0.00,  986.8,   86.8, -999.0
07-04-2022, 00:36:35,    249,    5.2,    5.8,   0.00,   0.00,  986.8,   86.8, -999.0
07-04-2022, 00:36:45,    249,    4.7,    5.8,   0.00,   0.00,  986.7,   86.8, -999.0
07-04-2022, 00:36:54,    242,    3.4,    5.8,   0.00,   0.00,  986.8,   86.9, -999.0
07-04-2022, 00:37:04,    219,    4.2,    5.8,   0.00,   0.00,  986.9,   86.9, -999.0
07-04-2022, 00:37:15,    200,    7.1,    5.8,   0.00,   0.00,  986.8,   87.0, -999.0
07-04-2022, 00:37:24,    265,    4.8,    5.7,   0.00,   0.00,  986.8,   87.0, -999.0
07-04-2022, 00:37:34,    256,    5.7,    5.8,   0.00,   0.00,  986.8,   87.0, -999.0
07-04-2022, 00:37:44,    245,    3.1,    5.7,   0.00,   0.00,  986.8,   87.0, -999.0
07-04-2022, 00:37:54,    258,    3.5,    5.7,   0.00,   0.00,  986.8,   87.1, -999.0
07-04-2022, 00:38:04,    263,    1.9,    5.8,   0.00,   0.00,  986.8,   87.2, -999.0
07-04-2022, 00:38:14,    273,    1.7,    5.8,   0.00,   0.00,  986.8,   87.2, -999.0
07-04-2022, 00:38:24,    253,    1.4,    5.8,   0.00,   0.00,  986.9,   87.2, -999.0
07-04-2022, 00:38:34,    266,    1.8,    5.8,   0.00,   0.00,  986.9,   87.3, -999.0
07-04-2022, 00:38:44,    258,    6.8,    5.8,   0.00,   0.00,  986.9,   87.2, -999.0
07-04-2022, 00:38:54,    270,    5.3,    5.7,   0.00,   0.00,  986.9,   87.3, -999.0
07-04-2022, 00:39:04,    237,    4.2,    5.7,   0.00,   0.00,  986.9,   87.3, -999.0
07-04-2022, 00:39:14,    229,    4.7,    5.7,   0.00,   0.00,  986.9,   87.3, -999.0
07-04-2022, 00:39:24,    233,    9.1,    5.7,   0.00,   0.00,  986.9,   87.5, -999.0
07-04-2022, 00:39:33,    283,    6.2,    5.7,   0.00,   0.00,  986.9,   87.5, -999.0
07-04-2022, 00:39:44,    254,    6.7,    5.7,   0.00,   0.00,  986.9,   87.7, -999.0
07-04-2022, 00:39:54,    266,    5.4,    5.8,   0.00,   0.00,  986.9,   87.5, -999.0
07-04-2022, 00:40:03,    254,    4.2,    5.8,   0.00,   0.00,  986.9,   87.7, -999.0
07-04-2022, 00:40:14,    289,    3.8,    5.7,   0.00,   0.00,  986.9,   87.7, -999.0
07-04-2022, 00:40:24,    264,    1.2,    5.7,   0.00,   0.00,  986.9,   87.7, -999.0
07-04-2022, 00:40:33,    291,    3.0,    5.7,   0.00,   0.00,  986.9,   87.7, -999.0
07-04-2022, 00:40:43,    273,    1.9,    5.8,   0.00,   0.00,  986.9,   87.7, -999.0
07-04-2022, 00:40:53,    237,    2.7,    5.8,   0.00,   0.00,  986.9,   87.8, -999.0
07-04-2022, 00:41:03,    272,    3.0,    5.8,   0.00,   0.00,  986.9,   87.7, -999.0
07-04-2022, 00:41:13,    260,    3.1,    5.7,   0.00,   0.00,  986.9,   87.9, -999.0
07-04-2022, 00:41:23,    246,    3.9,    5.7,   0.00,   0.00,  986.9,   87.9, -999.0
07-04-2022, 00:41:33,    266,    2.2,    5.7,   0.00,   0.00,  986.9,   88.1, -999.0
07-04-2022, 00:41:43,    273,    2.4,    5.7,   0.00,   0.00,  986.9,   88.1, -999.0
07-04-2022, 00:41:53,    299,    2.8,    5.8,   0.00,   0.00,  987.0,   88.1, -999.0
07-04-2022, 00:42:03,    281,    3.0,    5.7,   0.00,   0.00,  986.8,   88.2, -999.0
07-04-2022, 00:42:13,    235,    3.8,    5.6,   0.00,   0.00,  986.8,   88.2, -999.0
07-04-2022, 00:42:23,    263,    6.5,    5.6,   0.00,   0.00,  986.8,   88.1, -999.0
07-04-2022, 00:42:33,    239,    4.1,    5.6,   0.00,   0.00,  986.8,   88.0, -999.0
07-04-2022, 00:42:43,    228,    3.7,    5.6,   0.00,   0.00,  986.8,   88.0, -999.0
07-04-2022, 00:42:53,    289,    5.3,    5.6,   0.00,   0.00,  986.8,   88.2, -999.0
07-04-2022, 00:43:03,    285,    3.9,    5.6,   0.00,   0.00,  986.8,   88.4, -999.0
07-04-2022, 00:43:12,    303,    4.1,    5.6,   0.00,   0.00,  986.8,   88.5, -999.0
07-04-2022, 00:43:23,    261,    4.2,    5.7,   0.00,   0.00,  986.8,   88.5, -999.0
07-04-2022, 00:43:33,    297,    3.4,    5.5,   0.00,   0.00,  986.8,   88.7, -999.0
07-04-2022, 00:43:42,    297,    8.9,    5.5,   0.00,   0.00,  986.8,   88.5, -999.0
07-04-2022, 00:43:52,    284,    7.9,    5.5,   0.00,   0.00,  986.8,   87.7, -999.0
07-04-2022, 00:44:03,    236,    2.3,    5.5,   0.00,   0.00,  986.9,   87.6, -999.0
07-04-2022, 00:44:12,    328,    1.4,    5.5,   0.00,   0.00,  986.9,   87.8, -999.0
07-04-2022, 00:44:22,    236,    4.3,    5.5,   0.00,   0.00,  986.9,   88.0, -999.0
07-04-2022, 00:44:32,    250,    2.7,    5.5,   0.00,   0.00,  986.8,   88.1, -999.0
07-04-2022, 00:44:42,    266,    2.8,    5.6,   0.00,   0.00,  986.8,   88.2, -999.0
07-04-2022, 00:44:52,    231,    2.9,    5.6,   0.00,   0.00,  986.8,   88.2, -999.0
07-04-2022, 00:45:02,    269,    6.7,    5.5,   0.00,   0.00,  986.8,   88.1, -999.0
07-04-2022, 00:45:12,    237,    3.6,    5.6,   0.00,   0.00,  986.8,   88.0, -999.0
07-04-2022, 00:45:22,    264,    4.3,    5.5,   0.00,   0.00,  986.8,   88.1, -999.0
07-04-2022, 00:45:32,    200,    7.0,    5.5,   0.00,   0.00,  986.8,   88.0, -999.0
07-04-2022, 00:45:42,    255,    4.5,    5.4,   0.00,   0.00,  986.7,   87.8, -999.0
07-04-2022, 00:45:52,    232,    4.7,    5.5,   0.00,   0.00,  986.9,   87.7, -999.0
07-04-2022, 00:46:02,    249,    7.5,    5.4,   0.00,   0.00,  986.8,   87.8, -999.0
07-04-2022, 00:46:12,    237,    7.0,    5.5,   0.00,   0.00,  986.8,   87.7, -999.0
07-04-2022, 00:46:22,    254,    5.2,    5.4,   0.00,   0.00,  986.8,   87.7, -999.0
07-04-2022, 00:46:32,    237,    2.8,    5.5,   0.00,   0.00,  986.8,   87.6, -999.0
07-04-2022, 00:46:42,    231,    5.2,    5.5,   0.00,   0.00,  986.8,   87.6, -999.0